GW3396 Weather Reports


Display with metric or nautical units.
time (UTC)temp
F
wind
direction
speed
MPH
gust
MPH
rain 1hr
in
rain 24hr
in
rain mn
in
humidity
%
barometer
mb
20260906124508 70 360 0.0 3.0 0.00 0.00 0.00 92 1015.9
20260906123007 70 283 1.0 4.0 0.00 0.00 0.00 93 1015.8
20260906121514 69 325 0.0 3.0 0.00 0.00 0.00 92 1015.7
20260906120017 69 218 0.0 2.0 0.00 0.00 0.00 91 1015.5
20260906114524 69 153 0.0 3.0 0.00 0.00 0.00 91 1015.3
20260906113008 70 338 1.0 2.0 0.00 0.00 0.00 91 1015.3
20260906111510 70 338 1.0 6.0 0.00 0.00 0.00 91 1015.1
20260906110018 70 284 1.0 4.0 0.00 0.00 0.00 91 1015.0
20260906104525 70 203 0.0 5.0 0.00 0.00 0.00 91 1014.5
20260906103028 71 106 0.0 3.0 0.00 0.00 0.00 91 1014.0
20260906101508 71 56 0.0 2.0 0.00 0.00 0.00 91 1014.2
20260906100015 71 11 3.0 8.0 0.00 0.00 0.00 90 1014.3
20260906094519 71 51 4.0 6.0 0.00 0.00 0.00 90 1014.5
20260906093031 71 63 0.0 2.0 0.00 0.00 0.00 89 1014.2
20260906091529 72 12 2.0 5.0 0.00 0.00 0.00 89 1014.6
20260906090010 72 18 2.0 5.0 0.00 0.00 0.00 88 1015.1
20260906084519 72 27 1.0 3.0 0.00 0.00 0.00 88 1015.2
20260906083026 72 307 1.0 3.0 0.00 0.00 0.00 88 1015.1
20260906081530 72 1 0.0 3.0 0.00 0.00 0.00 87 1014.8
20260906080033 72 326 1.0 4.0 0.00 0.00 0.00 88 1014.9
20260906074518 72 331 3.0 7.0 0.00 0.00 0.00 89 1014.8
20260906073003 72 359 4.0 6.0 0.00 0.00 0.00 90 1015.1
20260906071504 71 346 3.0 7.0 0.00 0.00 0.00 91 1015.1
20260906070006 70 338 1.0 7.0 0.00 0.00 0.00 92 1015.0
20260906064517 70 359 1.0 4.0 0.00 0.00 0.00 91 1014.7
20260906063021 70 167 0.0 2.0 0.00 0.00 0.00 91 1014.8
20260906061504 70 167 0.0 1.0 0.00 0.00 0.00 90 1014.8
20260906060006 70 167 0.0 0.0 0.00 0.00 0.00 90 1015.0
20260906054511 71 167 0.0 0.0 0.00 0.00 0.00 89 1014.8
20260906053020 71 167 0.0 0.0 0.00 0.00 0.00 89 1014.8
20260906051523 72 167 0.0 0.0 0.00 0.00 0.00 89 1014.9
20260906050006 72 167 0.0 0.0 0.00 0.00 0.00 88 1014.9
20260906044508 72 167 0.0 0.0 0.00 0.00 0.00 87 1015.1
20260906043013 73 167 0.0 0.0 0.00 0.00 0.00 87 1015.1
20260906041520 73 167 0.0 0.0 0.00 0.00 0.00 86 1015.2
20260906040024 73 167 0.0 2.0 0.00 0.00 0.00 86 1015.3
20260906034507 74 167 0.0 2.0 0.00 0.00 0.00 86 1015.6
20260906033017 74 167 0.0 2.0 0.00 0.00 0.00 85 1015.6
20260906031516 74 167 0.0 2.0 0.00 0.00 0.00 85 1015.5
20260906030022 75 167 0.0 2.0 0.00 0.00 0.00 84 1015.2
20260906024528 75 65 0.0 2.0 0.00 0.00 0.00 83 1015.2
20260906023033 76 65 0.0 1.0 0.00 0.00 0.00 81 1015.1
20260906021516 76 360 0.0 2.0 0.00 0.00 0.00 80 1015.0
20260906020018 77 360 0.0 2.0 0.00 0.00 0.00 80 1015.1
20260906014532 78 360 0.0 2.0 0.00 0.00 0.00 79 1015.2
20260906013030 78 360 1.0 3.0 0.00 0.00 0.00 78 1015.0
20260906011530 79 44 1.0 3.0 0.00 0.00 0.00 77 1014.6
20260906010014 80 44 2.0 3.0 0.00 0.00 0.00 76 1014.2
20260906004519 80 315 0.0 4.0 0.00 0.00 0.00 75 1014.3
20260906003027 81 31 1.0 5.0 0.00 0.00 0.00 75 1014.0
20260906001529 81 16 2.0 4.0 0.00 0.00 0.00 74 1013.7
20260906000031 83 37 2.0 3.0 0.00 0.00 0.00 73 1014.0
20260905234516 84 300 0.0 3.0 0.00 0.00 0.00 70 1014.1
20260905233024 85 313 2.0 4.0 0.00 0.00 0.00 67 1014.1
20260905231527 86 1 2.0 4.0 0.00 0.00 0.00 63 1014.0
20260905230032 87 68 0.0 3.0 0.00 0.00 0.00 62 1013.9
20260905224534 88 359 1.0 7.0 0.00 0.00 0.00 60 1014.0
20260905223023 88 46 1.0 5.0 0.00 0.00 0.00 62 1013.9
20260905221534 86 19 2.0 4.0 0.00 0.00 0.00 64 1014.1
20260905220030 84 360 2.0 3.0 0.00 0.00 0.00 65 1013.9
20260905214530 86 6 2.0 3.0 0.00 0.00 0.00 64 1014.1
20260905213035 87 163 1.0 5.0 0.00 0.00 0.00 58 1014.4
20260905211529 88 184 0.0 6.0 0.00 0.00 0.00 55 1014.2
20260905210032 89 104 3.0 9.0 0.00 0.00 0.00 53 1014.5
20260905204529 93 41 4.0 14.0 0.00 0.00 0.00 51 1014.1
20260905203038 96 104 3.0 8.0 0.00 0.00 0.00 46 1014.1
20260905201535 96 338 4.0 8.0 0.00 0.00 0.00 46 1014.2
20260905200028 95 314 3.0 8.0 0.00 0.00 0.00 46 1014.3
20260905194531 95 285 3.0 8.0 0.00 0.00 0.00 45 1014.6
20260905193032 95 283 1.0 11.0 0.00 0.00 0.00 47 1014.7
20260905191533 95 4 3.0 8.0 0.00 0.00 0.00 50 1014.9
20260905190004 94 218 1.0 10.0 0.00 0.00 0.00 47 1015.1
20260905184504 94 302 3.0 8.0 0.00 0.00 0.00 47 1015.3
20260905183004 94 358 6.0 9.0 0.00 0.00 0.00 48 1015.5
20260905181504 93 313 3.0 7.0 0.00 0.00 0.00 51 1015.8
20260905180004 93 360 4.0 10.0 0.00 0.00 0.00 53 1016.0
20260905174512 93 324 4.0 8.0 0.00 0.00 0.00 53 1016.1
20260905173017 92 23 3.0 10.0 0.00 0.00 0.00 53 1016.3
20260905171504 92 333 4.0 8.0 0.00 0.00 0.00 52 1016.4
20260905170006 92 326 5.0 10.0 0.00 0.00 0.00 54 1016.4
20260905164506 92 309 5.0 9.0 0.00 0.00 0.00 56 1016.6
20260905163004 92 10 3.0 9.0 0.00 0.00 0.00 55 1016.7
20260905161508 91 343 3.0 7.0 0.00 0.00 0.00 57 1017.0
20260905160008 90 295 2.0 8.0 0.00 0.00 0.00 59 1017.1
20260905154506 90 43 3.0 8.0 0.00 0.00 0.00 61 1017.2
20260905153006 89 344 5.0 8.0 0.00 0.00 0.00 63 1017.2
20260905151508 89 342 3.0 8.0 0.00 0.00 0.00 63 1017.2
20260905150011 88 4 3.0 7.0 0.00 0.00 0.00 65 1017.3
20260905144509 88 66 1.0 4.0 0.00 0.00 0.00 67 1017.3
20260905143014 87 46 0.0 0.0 0.00 0.00 0.00 67 1017.4
20260905141510 86 208 0.0 0.0 0.00 0.00 0.00 69 1017.4
20260905140016 85 11 0.0 0.0 0.00 0.00 0.00 70 1017.6
20260905134517 83 90 0.0 2.0 0.00 0.00 0.00 73 1017.5
20260905133016 82 60 0.0 2.0 0.00 0.00 0.00 74 1017.7
20260905131530 80 60 0.0 2.0 0.00 0.00 0.00 82 1017.7
20260905130016 77 332 0.0 2.0 0.00 0.00 0.00 89 1017.8